BEIDOU 10

Last updated on Sun Feb 19 2023 00:02:46 GMT+0000 (Coordinated Universal Time)

1 37948U 11073A 23049.17815186 -.00000114 00000+0 00000+0 0 9993 2 37948 49.8890 286.3519 0085268 220.1930 161.7549 1.00278506 41222
UTC large
Height (km)
Speed (km/s)
/
Latitude / Longitude
Inclination (degrees)
Orbital Period (minutes)
Azimuth
Elevation
Range (km)
Doppler Factor

Next 0 passes for location: London (51.5072 / 0.1276)

Sorry there are no passes over London.